Regional Weather Roundup
Issued by NWS

Home | Current Version | Previous Version | Graphics & Text | Print | Product List | Glossary On
Versions: 1 2 3 4 5 6 7 8 9 10 11 12 13 14 15 16 17 18 19 20 21 22 23 24 25 26 27 28 29 30 31 32 33 34 35 36 37 38 39 40 41 42 43 44 45 46 47 48 49 50
000
ASUS43 KIND 251259
RWRIN

WEATHER ROUNDUP FOR INDIANA
NATIONAL WEATHER SERVICE INDIANAPOLIS IN
800 AM EST THU DEC 25 2014

NOTE: "FAIR" INDICATES FEW OR NO CLOUDS BELOW 12,000 FEET WITH NO
SIGNIFICANT WEATHER AND/OR OBSTRUCTIONS TO VISIBILITY.

* - STATION DOES NOT REPORT WEATHER SUCH AS PRECIPITATION OR FOG.

+ - STATION NOT QUALITY CONTROLLED BY THE NATIONAL WEATHER SERVICE.
    USE DATA WITH CAUTION...ESPECIALLY DEWPOINT AND RELATIVE
    HUMIDITY OBSERVATIONS.

INZ001>003-010>013-019-020-251400-
NORTHWEST INDIANA

CITY           SKY/WX    TMP DP  RH WIND       PRES   REMARKS
GARY /AIRPORT/ CLOUDY    36  27  69 W8        29.88R
VALPARAISO     NOT AVBL

$$

LMZ046-743>745-251400-
SOUTHERN LAKE MICHIGAN

STATION/POSITION TIME  TEMP WIND        PRES
                       AIR  DIR/SP/G
                 (UTC) (F)  (DEG/KT/KT) (MB)
MICHIGAN CITY    1200   35  220/ 24/ 26   N/A

$$

INZ004-005-014>016-021>024-251400-
NORTH CENTRAL INDIANA

CITY           SKY/WX    TMP DP  RH WIND       PRES   REMARKS
GOSHEN         CLOUDY    36  31  82 W14       29.87R
PERU/GRISSOM   CLOUDY    34  34 100 W15       29.93R WCI  24
SOUTH BEND     CLOUDY    36  29  75 W15       29.88

$$

INZ006>009-017-018-025>027-251400-
NORTHEAST INDIANA

CITY           SKY/WX    TMP DP  RH WIND       PRES   REMARKS
ANGOLA *+      CLOUDY    36  32  87 W13       29.84R
FORT WAYNE     CLOUDY    36  32  85 W17       29.91R

$$

INZ028-029-035-036-043>045-051>053-251400-
WEST CENTRAL INDIANA

CITY           SKY/WX    TMP DP  RH WIND       PRES   REMARKS
GREENCASTLE +  CLOUDY    34  28  80 W5        29.99R WCI  30
LAFAYETTE      CLOUDY    35  30  82 SW8       29.95R WCI  29
TERRE HAUTE    CLOUDY    36  30  79 W6        30.00R

$$

INZ030>032-037>040-046>048-054>057-064-065-251400-
CENTRAL INDIANA

CITY           SKY/WX    TMP DP  RH WIND       PRES   REMARKS
INDIANAPOLIS   CLOUDY    34  29  82 W15       29.98R WCI  24
-EAGLE CREEK   CLOUDY    35  29  78 W10       29.98R WCI  27
KOKOMO *+      CLOUDY    36  28  75 W12       29.94R
MT COMFORT *+  CLOUDY    36  34  93 W9        29.98R
SHELBYVILLE    CLOUDY    38  30  73 W14       29.98R

$$

INZ033-034-041-042-049-050-058-059-251400-
EAST CENTRAL INDIANA

CITY           SKY/WX    TMP DP  RH WIND       PRES   REMARKS
MUNCIE         CLOUDY    35  30  82 W15G21    29.94R WCI  25

$$

INZ060-061-067>069-081>083-085>088-251400-
SOUTHWEST INDIANA

CITY           SKY/WX    TMP DP  RH WIND       PRES   REMARKS
EVANSVILLE     CLOUDY    40  32  73 SW7       30.07R
HUNTINGBURG *+ CLOUDY    37  30  75 SW9       30.06R

$$

INZ062-063-066-070>080-084-089>092-251400-
SOUTH CENTRAL AND SOUTHEAST INDIANA

CITY           SKY/WX    TMP DP  RH WIND       PRES   REMARKS
BLOOMINGTON    CLOUDY    36  31  82 W10       30.00R
SEYMOUR +      CLOUDY    39  32  75 W14       30.03

$$




USA.gov is the U.S. government's official web portal to all federal, state and local government web resources and services.